Showing default

CONNECTA IOT-5, 62703

Orbit data source: Space-Track

CONNECTA IOT-5, 62703 is a payload satellite owned by Plan-S (TR) in SSO that was launched on Tue, 14 Jan 2025 UTC via an FALCON 9 launch vehicle from the Air Force Western Test Range (AFWTR). Payload-class satellites include a variety of spacecraft equipped with specific instruments for various scientific and technological missions. These include communications satellites like Starlink; space stations such as the ISS; scientific satellites like the Hubble; Earth observation satellites from companies like Planet Labs, Umbra, and HawkEye 360; GPS; miniature CubeSats for education and research; and military/defense satellites.

Loading next visibility...
Identifier
62703, 2025-009CY
Orbit
SSO
Country
Flag of TRTR / TURK
Related business
Manufacturer
Plan-S
Mission
Operational Commercial Communications
Bus & Motor
CUBESAT 6U, Unknown motor
Mass
10 kg wet, 10 kg dry
Launch date (UTC)
2025-01-14 (1 year ago)
Launch vehicle
FALCON 9
Launch site
Air Force Western Test Range (AFWTR)
Object type
Payload
Rocket body
Debris
Shape & HBR
Box, 2.2 m
Radar Cross Section
0.080 m², Medium (>0.1 m² and < 1m²)

Expand to show TLE details & history
Last TLE update: 1 day ago

TLE from 1 day ago
0 CONNECTA IOT-5
1 62703U 25009CY  26170.69457932  .00001074  00000-0  10559-3 0  9990
2 62703  97.7027 249.2446 0003670  70.8108 289.3510 14.94164291 77747
Epoch: 2026-06-19T16:40Z
TLE epoch observation values (Epoch: 2026-06-19T16:40:11.653Z)
Latitude
0.00007°
Longitude
91.27616°
Altitude
587.168 km
Speed
7.567 km/s
True Right ascension
16h 36m 58s
True Declination
0° 00' 00"
Sunlit
Object was in full shadow at epoch
Visualization orbit readout
Latitude
Unknown
Longitude
Unknown
Altitude
Unknown
Speed
Unknown
Apparent Right ascension
Unknown
Apparent Declination
Unknown
Sunlit
N/A
Visualization observer readout
Local Sidereal Time
07:22:46
Azimuth
Unknown
Elevation
Unknown
Doppler factor
Unknown
Orbital elements
Apogee altitude
584.535 km
Perigee altitude
579.427 km
Semi-major axis
6,960.118 km
Eccentricity
0.00037
Inclination
97.7027°
RAAN
249.2446°
Arg. of periapsis
70.8108°
True anomaly
289.31131°
Mean anomaly
289.351°
Eccentric anomaly
289.33116°
Mean motion
3.73782 °/min
Orbital period
96.31 mins
BSTAR
0.00010559
Loading maneuver chart data...
Computing Atmospheric mass density...
Loading historical data...
Loading historical data...
Loading historical data...
Loading historical data...
Loading historical data...
Loading historical data...
Loading historical data...

Documentation

Showing up to 5 results
|